Location: Bretagne
(43.8474°N, 0.4650°W)
Time: 14:40:22
(UTC+00:00)

SKYMED 2 - Visible Passes

Search period start: 19 April 2026 00:00
Search period end: 29 April 2026 00:00
Orbit: 622 x 624 km, 97.9° (Epoch: 19 April)

Date Brightness Start Highest point End Pass type
(mag) Time Alt. Az. Time Alt. Az. Time Alt. Az.
19 Apr 7.0 03:56:37 10° E 03:59:08 15° ENE 04:01:39 10° NNE visible
20 Apr 6.5 04:13:37 10° ESE 04:16:58 22° ENE 04:20:19 10° NNE visible
21 Apr 5.7 04:30:59 10° SE 04:34:51 33° ENE 04:38:45 10° N visible
21 Apr 7.0 19:29:55 10° NNW 19:32:36 16° WNW 19:35:15 10° W visible
22 Apr 7.5 19:49:15 10° NW 19:50:23 11° WNW 19:51:31 10° WNW visible
24 Apr 7.1 03:51:05 10° E 03:53:11 13° ENE 03:55:17 10° NNE visible
25 Apr 6.8 04:07:54 10° ESE 04:11:00 20° ENE 04:14:07 10° NNE visible
26 Apr 6.0 04:25:10 10° SE 04:28:52 29° ENE 04:32:37 10° N visible
26 Apr 6.9 19:23:39 10° NNW 19:26:38 18° WNW 19:29:36 10° WSW visible
27 Apr 7.3 19:42:36 10° NW 19:44:26 13° WNW 19:46:16 10° W visible
